Location: Newark
(19.5361°N, 155.5761°W)
Time: 20:44:39
(UTC+00:00)

Envisat - Visible Passes

Search period start: 26 January 2020 00:00
Search period end: 05 February 2020 00:00
Orbit: 764 x 766 km, 98.1° (Epoch: 26 January)

Date Brightness Start Highest point End Pass type
(mag) Time Alt. Az. Time Alt. Az. Time Alt. Az.
26 Jan 4.8 05:04:00 10° SSW 05:08:34 35° W 05:13:10 10° NW visible
26 Jan 6.2 15:47:20 10° ENE 15:50:03 14° E 15:52:46 10° SE visible
27 Jan 3.0 04:26:45 10° SSE 04:31:50 86° ENE 04:36:55 10° N visible
28 Jan 6.0 05:30:49 10° SW 05:34:06 17° W 05:37:24 10° WNW visible
28 Jan 5.3 16:11:13 10° NE 16:15:36 29° E 16:19:57 10° SSE visible
29 Jan 4.2 04:52:26 10° S 04:57:17 47° W 05:02:08 10° NNW visible
29 Jan 6.6 15:37:58 10° E 15:38:43 10° E 15:39:27 10° ESE visible
31 Jan 5.6 05:18:48 10° SSW 05:22:47 23° W 05:26:47 10° NW visible
31 Jan 5.8 16:00:25 10° NE 16:04:17 22° E 16:08:08 10° SSE visible
01 Feb 3.6 04:40:59 10° S 04:45:59 63° WSW 04:51:01 10° NNW visible
02 Feb 6.4 05:46:54 10° WSW 05:48:21 11° W 05:49:47 10° W visible
02 Feb 4.4 16:24:58 10° NNE 16:29:48 44° E 16:34:36 10° S visible
03 Feb 5.1 05:07:02 10° SSW 05:11:28 31° W 05:15:56 10° NW visible
03 Feb 6.1 15:49:51 10° ENE 15:52:58 16° E 15:56:04 10° SE visible
04 Feb 3.1 04:29:39 10° S 04:34:43 85° WSW 04:39:48 10° NNW visible
